Regional Weather Roundup
Issued by NWS Little Rock, AR

Home | Current Version | Previous Version | Text Only | Print | Product List | Glossary Off
Versions: 1 2 3 4 5 6 7 8 9 10 11 12 13 14 15 16 17 18 19 20 21 22 23 24 25

711
ASUS44 KLZK 211505
RWRLZK

WEATHER ROUNDUP FOR ARKANSAS
NATIONAL WEATHER SERVICE LITTLE ROCK AR
1000 AM CDT THU MAY 21 2015

NOTE: "FAIR" INDICATES FEW OR NO CLOUDS BELOW 12,000 FEET WITH NO
SIGNIFICANT WEATHER AND/OR OBSTRUCTIONS TO VISIBILITY.

ARZ001-003-010-029-211600-
NORTHWEST ARKANSAS

CITY           SKY/WX    TMP DP  RH WIND       PRES   REMARKS
FAYETTEVILLE   PTSUNNY   52  45  77 NE8       30.26S
FORT SMITH     PTSUNNY   59  44  57 NE6       30.25R
HARRISON       CLOUDY    54  44  69 NW6       30.25R
BENTONVILLE    PTSUNNY   52  43  71 N8        30.27R
ROGERS         PTSUNNY   52  44  74 NE10      30.27R
SILOAM SPGS    PTSUNNY   54  41  62 NE8G16    30.28R
HIGHFILL       PTSUNNY   56  46  69 N9        30.26S
SPRINGDALE     PTSUNNY   52  45  76 N14       30.28R
$$

ARZ004-005-016-211600-
NORTH CENTRAL ARKANSAS

CITY           SKY/WX    TMP DP  RH WIND       PRES   REMARKS
BATESVILLE     CLOUDY    54  45  71 NW6       30.24R
FLIPPIN        CLOUDY    55  43  62 N10G18    30.24R
MTN HOME       PTSUNNY   53  43  68 NE9       30.24R
$$

ARZ040-041-211600-
WEST CENTRAL ARKANSAS

CITY           SKY/WX    TMP DP  RH WIND       PRES   REMARKS
MENA           CLOUDY    59  52  77 NE6       30.23R
MOUNT IDA      CLOUDY    57  49  74 VRB6      30.21R
$$

ARZ009-017-025-026-028-211600-
NORTHEAST ARKANSAS

CITY           SKY/WX    TMP DP  RH WIND       PRES   REMARKS
CORNING          N/A     50  41  71 N12G17    30.24R
JONESBORO      CLOUDY    51  44  77 N9        30.22S
NEWPORT        CLOUDY    53  47  80 N12       30.25R
WALNUT RIDGE   CLOUDY    52  41  66 N14       30.23S
BLYTHEVILLE    CLOUDY    51  44  77 N15       30.22R
NW BLYTHEVILLE CLOUDY    52  43  71 N12G22    30.21S
$$

ARZ022-023-033-042-044-211600-
CENTRAL ARKANSAS

CITY           SKY/WX    TMP DP  RH WIND       PRES   REMARKS
LITTLE ROCK    CLOUDY    58  47  66 N13       30.22R
N LITTLE ROCK  CLOUDY    56  51  85 N10G17    30.22R
JACKSONVILLE   PTSUNNY   61  46  59 NE12      30.18R
SEARCY         CLOUDY    54  48  80 N10       30.25R
HOT SPRINGS    CLOUDY    58  48  69 NE7       30.22R
RUSSELLVILLE   CLOUDY    57  46  66 N6        30.24S
CLINTON        CLOUDY    57  45  62 N6        30.26R
$$

ARZ036-211600-
EAST ARKANSAS

CITY           SKY/WX    TMP DP  RH WIND       PRES   REMARKS
WEST MEMPHIS   CLOUDY    52  48  86 N15G23    30.20R
$$

ARZ050-053-066-070-073-211600-
SOUTHWEST ARKANSAS

CITY           SKY/WX    TMP DP  RH WIND       PRES   REMARKS
ARKADELPHIA    CLOUDY    59  54  83 N10       30.22R
CAMDEN         HVY RAIN  57  55  94 N7        30.19R
TEXARKANA      LGT RAIN  60  58  92 NE8       30.19R FOG
EL DORADO      RAIN      60  59  96 NE6       30.16F FOG
DE QUEEN       CLOUDY    61  55  81 N5        30.19R
$$

ARZ056-057-069-211600-
SOUTHEAST ARKANSAS

CITY           SKY/WX    TMP DP  RH WIND       PRES   REMARKS
PINE BLUFF     CLOUDY    57  51  80 N14G22    30.21R
STUTTGART      CLOUDY    55  46  71 N14       30.22R
MONTICELLO     CLOUDY    60  55  83 NE8       30.18R

$$





USA.gov is the U.S. government's official web portal to all federal, state and local government web resources and services.